Overview Statistics Trail Chart Weather Telemetry Raw packets
 

This is the latest recevied weather packets stored in our database for station/object DL4SAV. If no packets are shown the sender has not sent any weather packets the latest 10 day(s).

<< 34 35 36 37 38 39 40 >>
Time Temp. Humidity Pressure Rain* Wind** Luminosity Snow
1788368111 22.78° C 50% 1020.3 hPa 0 mm - - -
1788367810 22.78° C 50% 1020.5 hPa 0 mm - - -
1788367510 22.78° C 50% 1020.4 hPa 0 mm - - -
1788367210 22.78° C 49% 1020.4 hPa 0 mm - - -
1788366909 22.78° C 48% 1020.5 hPa 0 mm - - -
1788366609 23.33° C 47% 1020.5 hPa 0 mm - - -
1788366309 23.89° C 46% 1020.5 hPa 0 mm - - -
1788366009 24.44° C 45% 1020.5 hPa 0 mm - - -
1788365708 25° C 44% 1020.5 hPa 0 mm - - -
1788365408 25° C 44% 1020.6 hPa 0 mm - - -
1788365108 25.56° C 43% 1020.5 hPa 0 mm - - -
1788364807 26.11° C 41% 1020.4 hPa 0 mm - - -
1788364507 26.67° C 40% 1020.5 hPa 0 mm - - -
1788364207 27.22° C 39% 1020.5 hPa 0 mm - - -
1788363907 27.78° C 39% 1020.3 hPa 0 mm - - -
1788363606 27.78° C 39% 1020.3 hPa 0 mm - - -
1788363306 27.78° C 39% 1020.3 hPa 0 mm - - -
1788363006 28.33° C 39% 1020.4 hPa 0 mm - - -
1788362705 27.78° C 40% 1020.3 hPa 0 mm - - -
1788362405 27.22° C 41% 1020.4 hPa 0 mm - - -
1788362105 26.11° C 42% 1020.4 hPa 0 mm - - -
1788361805 25.56° C 42% 1020.3 hPa 0 mm - - -
1788361504 25.56° C 42% 1020.2 hPa 0 mm - - -
1788361204 25.56° C 42% 1020.2 hPa 0 mm - - -
1788360904 25° C 41% 1020.3 hPa 0 mm - - -

* Rain latest hour (hover to see other rain measurements)
** Current wind speed in m/s (hover to see current wind gust speed)